GW3962 Weather Reports


Display with metric or nautical units.
time (UTC)temp
F
wind
direction
speed
MPH
gust
MPH
rain 1hr
in
rain 24hr
in
rain mn
in
humidity
%
barometer
mb
20260508192103 80 262 2.0 5.0 0.00 0.00 0.00 68 1011.7
20260508191600 79 77 4.0 6.0 0.00 0.00 0.00 69 1011.5
20260508191057 79 48 3.0 5.0 0.00 0.00 0.00 70 1011.8
20260508190554 78 241 2.0 2.0 0.00 0.00 0.00 72 1011.8
20260508190050 77 53 2.0 3.0 0.00 0.00 0.00 71 1011.8
20260508185548 77 165 1.0 1.0 0.00 0.00 0.00 73 1011.8
20260508185045 78 72 2.0 2.0 0.00 0.00 0.00 70 1012.0
20260508184542 78 59 0.0 0.0 0.00 0.00 0.00 71 1012.2
20260508184039 79 63 2.0 3.0 0.00 0.00 0.00 68 1011.9
20260508183536 77 349 3.0 5.0 0.00 0.00 0.00 71 1011.8
20260508183032 77 69 3.0 5.0 0.00 0.00 0.00 71 1012.1
20260508182528 78 73 4.0 5.0 0.00 0.00 0.00 69 1012.2
20260508182025 78 309 1.0 2.0 0.00 0.00 0.00 70 1012.4
20260508181520 78 102 5.0 6.0 0.00 0.00 0.00 69 1012.4
20260508181018 77 49 4.0 5.0 0.00 0.00 0.00 70 1012.3
20260508180514 78 83 5.0 6.0 0.00 0.00 0.00 67 1012.6
20260508180011 77 316 1.0 1.0 0.00 0.00 0.00 69 1012.9
20260508175507 75 327 2.0 2.0 0.00 0.00 0.00 71 1012.5
20260508175005 75 147 2.0 3.0 0.00 0.00 0.00 73 1012.9
20260508174502 73 322 0.0 1.0 0.00 0.00 0.00 74 1012.6
20260508173959 71 310 1.0 1.0 0.00 0.00 0.00 79 1013.0
20260508173456 72 308 4.0 5.0 0.00 0.00 0.00 76 1013.0
20260508172952 74 358 3.0 3.0 0.00 0.00 0.00 71 1012.9
20260508172449 73 329 3.0 3.0 0.00 0.00 0.00 73 1013.2
20260508171946 73 6 1.0 1.0 0.00 0.00 0.00 74 1013.2
20260508171442 71 315 0.0 1.0 0.00 0.00 0.00 76 1013.2
20260508170939 71 103 3.0 5.0 0.00 0.00 0.00 75 1013.3
20260508170436 71 4 2.0 2.0 0.00 0.00 0.00 75 1013.1
20260508165933 71 338 2.0 2.0 0.00 0.00 0.00 75 1013.4
20260508165431 70 344 1.0 1.0 0.00 0.00 0.00 76 1013.4
20260508164926 71 20 2.0 2.0 0.00 0.00 0.00 75 1013.4
20260508164424 70 332 0.0 0.0 0.00 0.00 0.00 76 1013.8
20260508163921 69 322 0.0 0.0 0.00 0.00 0.00 77 1013.8
20260508163419 69 308 0.0 1.0 0.00 0.00 0.00 78 1013.8
20260508162914 69 321 0.0 1.0 0.00 0.00 0.00 77 1013.8
20260508162412 69 319 0.0 0.0 0.00 0.00 0.00 77 1014.1
20260508161908 68 331 1.0 1.0 0.00 0.00 0.00 78 1013.9
20260508161406 69 58 2.0 2.0 0.00 0.00 0.00 76 1014.0
20260508160903 69 7 2.0 2.0 0.00 0.00 0.00 76 1013.8
20260508160402 68 324 0.0 1.0 0.00 0.00 0.00 78 1014.2
20260508155857 67 2 0.0 1.0 0.00 0.00 0.00 79 1014.2
20260508155355 67 306 1.0 1.0 0.00 0.00 0.00 79 1014.1
20260508154851 66 320 1.0 1.0 0.00 0.00 0.00 81 1014.2
20260508154349 66 285 0.0 1.0 0.00 0.00 0.00 81 1014.2
20260508153845 66 300 1.0 1.0 0.00 0.00 0.00 81 1014.1
20260508153343 66 299 0.0 1.0 0.00 0.00 0.00 81 1014.4
20260508152838 66 260 2.0 2.0 0.00 0.00 0.00 82 1014.6
20260508152335 65 247 3.0 3.0 0.00 0.00 0.00 81 1014.3
20260508151831 66 86 1.0 2.0 0.00 0.00 0.00 81 1014.3
20260508151329 66 60 2.0 3.0 0.00 0.00 0.00 80 1014.2
20260508150825 66 245 1.0 2.0 0.00 0.00 0.00 80 1014.3
20260508150322 66 137 3.0 3.0 0.00 0.00 0.00 81 1014.4
20260508145818 65 241 2.0 2.0 0.00 0.00 0.00 81 1014.2
20260508145314 66 162 3.0 3.0 0.00 0.00 0.00 80 1014.5
20260508144811 66 327 0.0 0.0 0.00 0.00 0.00 80 1014.4
20260508144309 66 231 2.0 2.0 0.00 0.00 0.00 80 1014.2
20260508143802 66 315 1.0 1.0 0.00 0.00 0.00 81 1014.4
20260508143258 67 127 3.0 3.0 0.00 0.00 0.00 78 1014.2
20260508142755 67 315 0.0 0.0 0.00 0.00 0.00 77 1014.2
20260508142252 66 331 1.0 2.0 0.00 0.00 0.00 79 1013.8
20260508141748 65 28 2.0 2.0 0.00 0.00 0.00 80 1014.4
20260508141246 65 9 1.0 1.0 0.00 0.00 0.00 80 1014.1
20260508140743 64 237 1.0 2.0 0.00 0.00 0.00 81 1014.1
20260508140240 65 343 2.0 3.0 0.00 0.00 0.00 80 1014.1
20260508135735 63 340 1.0 2.0 0.00 0.00 0.00 82 1014.3
20260508135232 64 182 3.0 3.0 0.00 0.00 0.00 81 1014.2
20260508134727 65 170 3.0 3.0 0.00 0.00 0.00 78 1014.2
20260508134225 65 91 5.0 6.0 0.00 0.00 0.00 79 1013.8
20260508133721 64 27 2.0 2.0 0.00 0.00 0.00 81 1014.1
20260508133219 64 325 1.0 2.0 0.00 0.00 0.00 81 1014.1
20260508132717 64 43 6.0 8.0 0.00 0.00 0.00 81 1014.1
20260508132214 63 331 1.0 1.0 0.00 0.00 0.00 82 1014.5
20260508131709 62 2 1.0 1.0 0.00 0.00 0.00 83 1014.8
20260508131206 62 345 0.0 1.0 0.00 0.00 0.00 83 1015.1
20260508130702 62 323 0.0 0.0 0.00 0.00 0.00 83 1014.9
20260508130159 62 338 0.0 1.0 0.00 0.00 0.00 84 1014.3
20260508125654 61 3 1.0 1.0 0.00 0.00 0.00 85 1014.7
20260508125151 61 36 2.0 2.0 0.00 0.00 0.00 85 1014.6
20260508124650 61 3 1.0 2.0 0.00 0.00 0.00 85 1014.5
20260508124146 61 10 2.0 3.0 0.00 0.00 0.00 84 1014.5
20260508123645 61 12 2.0 2.0 0.00 0.00 0.00 85 1014.6
20260508123143 61 36 3.0 3.0 0.00 0.00 0.00 85 1014.5
20260508122639 60 19 1.0 2.0 0.00 0.00 0.00 85 1014.8
20260508122135 61 70 4.0 7.0 0.00 0.00 0.00 85 1014.6
20260508121633 60 52 4.0 5.0 0.00 0.00 0.00 85 1014.9
20260508121131 60 50 4.0 6.0 0.00 0.00 0.00 85 1014.7
20260508120628 60 81 5.0 6.0 0.00 0.00 0.00 85 1015.0
20260508120127 60 15 3.0 3.0 0.00 0.00 0.00 85 1014.9
20260508115624 60 63 4.0 6.0 0.00 0.00 0.00 85 1014.9
20260508115120 60 50 4.0 5.0 0.00 0.00 0.00 85 1015.1
20260508114618 60 59 4.0 5.0 0.00 0.00 0.00 85 1015.2
20260508114113 60 92 4.0 5.0 0.00 0.00 0.00 85 1015.0
20260508113611 60 58 3.0 3.0 0.00 0.00 0.00 85 1015.1
20260508113109 61 45 6.0 7.0 0.00 0.00 0.00 84 1015.1
20260508112605 61 49 3.0 3.0 0.00 0.00 0.00 84 1015.5
20260508112102 61 36 2.0 3.0 0.00 0.00 0.00 84 1015.3
20260508111559 61 330 0.0 1.0 0.00 0.00 0.00 84 1015.2
20260508111056 60 11 3.0 5.0 0.00 0.00 0.00 85 1015.4
20260508110554 60 19 2.0 3.0 0.00 0.00 0.00 85 1014.9
20260508110049 60 24 4.0 5.0 0.00 0.00 0.00 85 1014.8
20260508105544 60 0 6.0 8.0 0.00 0.00 0.00 85 1014.7
20260508105042 60 346 3.0 5.0 0.00 0.00 0.00 85 1014.7
20260508104540 60 22 4.0 6.0 0.00 0.00 0.00 85 1014.5
20260508104036 60 62 4.0 5.0 0.00 0.00 0.00 84 1014.6
20260508103533 60 9 4.0 6.0 0.00 0.00 0.00 84 1014.7
20260508103031 60 52 9.0 11.0 0.00 0.00 0.00 84 1014.5
20260508102528 60 22 3.0 5.0 0.00 0.00 0.00 84 1015.1
20260508102026 60 39 4.0 6.0 0.00 0.00 0.00 85 1015.1
20260508101523 60 45 3.0 5.0 0.00 0.00 0.00 85 1015.2
20260508101020 61 24 3.0 5.0 0.00 0.00 0.00 85 1015.3
20260508100518 61 39 3.0 5.0 0.00 0.00 0.00 85 1015.5
20260508100015 61 333 5.0 7.0 0.00 0.00 0.00 84 1015.6
20260508095512 61 6 3.0 3.0 0.00 0.00 0.00 84 1015.3
20260508095008 61 358 1.0 2.0 0.00 0.00 0.00 84 1015.6
20260508094506 61 32 5.0 6.0 0.00 0.00 0.00 83 1015.5
20260508094002 61 30 2.0 3.0 0.00 0.00 0.00 83 1015.5
20260508093459 61 25 3.0 3.0 0.00 0.00 0.00 83 1015.4
20260508092957 61 14 1.0 2.0 0.00 0.00 0.00 83 1015.4
20260508092454 61 32 3.0 5.0 0.00 0.00 0.00 82 1015.3
20260508091953 61 35 3.0 5.0 0.00 0.00 0.00 83 1015.3
20260508091449 61 46 2.0 2.0 0.00 0.00 0.00 82 1015.3
20260508090947 61 15 1.0 2.0 0.00 0.00 0.00 83 1015.1
20260508090445 61 30 2.0 2.0 0.00 0.00 0.00 83 1015.2
20260508085941 61 325 1.0 1.0 0.00 0.00 0.00 83 1015.1
20260508085437 61 327 1.0 1.0 0.00 0.00 0.00 82 1014.9
20260508084934 61 0 1.0 1.0 0.00 0.00 0.00 82 1014.9
20260508084431 61 331 0.0 1.0 0.00 0.00 0.00 82 1015.0
20260508083929 61 355 1.0 1.0 0.00 0.00 0.00 82 1014.7
20260508083426 60 11 1.0 2.0 0.00 0.00 0.00 82 1015.0
20260508082926 61 44 2.0 3.0 0.00 0.00 0.00 82 1014.9
20260508082423 61 12 1.0 2.0 0.00 0.00 0.00 82 1014.9
20260508081921 60 10 2.0 2.0 0.00 0.00 0.00 82 1015.1
20260508081418 60 23 3.0 3.0 0.00 0.00 0.00 82 1015.0
20260508080914 60 39 2.0 2.0 0.00 0.00 0.00 83 1015.1
20260508080413 60 329 1.0 1.0 0.00 0.00 0.00 83 1014.9
20260508075909 60 46 4.0 6.0 0.00 0.00 0.00 82 1014.9
20260508075406 60 54 3.0 5.0 0.00 0.00 0.00 83 1014.8
20260508074904 60 55 4.0 7.0 0.00 0.00 0.00 82 1014.8
20260508074400 60 48 2.0 2.0 0.00 0.00 0.00 83 1014.9
20260508073857 60 27 2.0 2.0 0.00 0.00 0.00 83 1014.8
20260508073356 60 348 3.0 5.0 0.00 0.00 0.00 83 1014.6
20260508072851 60 47 5.0 7.0 0.00 0.00 0.00 84 1015.0
20260508072348 60 41 3.0 3.0 0.00 0.00 0.00 84 1015.1
20260508071845 60 49 3.0 6.0 0.00 0.00 0.00 84 1014.9
20260508071344 60 33 5.0 6.0 0.00 0.00 0.00 84 1014.8
20260508070841 60 16 3.0 5.0 0.00 0.00 0.00 84 1015.0
20260508070339 60 54 5.0 7.0 0.00 0.00 0.00 84 1015.1
20260508065837 60 59 4.0 6.0 0.00 0.00 0.00 84 1015.4
20260508065334 60 33 4.0 5.0 0.00 0.00 0.00 85 1015.3
20260508064833 60 51 5.0 6.0 0.00 0.00 0.00 85 1015.5
20260508064330 60 37 3.0 3.0 0.00 0.00 0.00 85 1015.3
20260508063827 60 40 3.0 3.0 0.00 0.00 0.00 85 1015.7
20260508063325 60 36 3.0 3.0 0.00 0.00 0.00 85 1015.6
20260508062822 60 44 4.0 5.0 0.00 0.00 0.00 86 1015.7
20260508062319 60 48 3.0 3.0 0.00 0.00 0.00 85 1015.7
20260508061816 60 25 3.0 3.0 0.00 0.00 0.00 85 1015.9
20260508061313 60 10 2.0 2.0 0.00 0.00 0.00 85 1016.1
20260508060810 60 335 2.0 3.0 0.00 0.00 0.00 86 1016.3
20260508060308 60 7 2.0 3.0 0.00 0.00 0.00 86 1015.8
20260508055802 60 3 1.0 1.0 0.00 0.01 0.01 85 1015.7
20260508055300 60 23 3.0 3.0 0.00 0.01 0.01 85 1015.7
20260508054756 60 19 1.0 2.0 0.00 0.01 0.01 86 1015.6
20260508054254 60 359 3.0 3.0 0.00 0.01 0.01 85 1015.5
20260508053751 60 28 2.0 2.0 0.00 0.01 0.01 85 1015.8
20260508053249 60 5 1.0 2.0 0.00 0.01 0.01 85 1015.7
20260508052746 60 353 0.0 1.0 0.00 0.01 0.01 85 1015.8
20260508052243 60 332 0.0 0.0 0.00 0.01 0.01 84 1015.7
20260508051739 60 15 1.0 2.0 0.00 0.01 0.01 84 1016.1
20260508051234 60 1 2.0 2.0 0.00 0.01 0.01 84 1015.9
20260508050731 61 6 3.0 5.0 0.00 0.01 0.01 83 1015.7
20260508050228 60 19 4.0 5.0 0.00 0.01 0.01 84 1015.4
20260508045724 60 41 3.0 3.0 0.00 0.01 0.01 84 1015.7
20260508045222 60 64 4.0 5.0 0.00 0.01 0.01 84 1015.6
20260508044719 60 59 2.0 3.0 0.00 0.01 0.01 84 1015.6
20260508044216 61 30 3.0 3.0 0.00 0.01 0.01 84 1016.4
20260508043711 60 347 3.0 5.0 0.00 0.01 0.01 84 1016.4
20260508043210 60 32 3.0 5.0 0.00 0.01 0.01 83 1016.1
20260508042706 60 0 2.0 3.0 0.00 0.01 0.01 84 1016.2
20260508042203 60 345 2.0 2.0 0.00 0.01 0.01 84 1015.6
20260508041659 59 74 4.0 5.0 0.00 0.01 0.01 85 1015.3
20260508041156 59 28 1.0 2.0 0.00 0.01 0.01 86 1015.5
20260508040653 60 355 2.0 2.0 0.00 0.01 0.01 85 1016.4
20260508040150 60 320 3.0 3.0 0.00 0.01 0.01 85 1016.8
20260508035647 59 321 3.0 3.0 0.00 0.01 0.01 86 1016.5
20260508035145 59 347 1.0 1.0 0.00 0.01 0.01 86 1016.2
20260508034641 60 359 1.0 2.0 0.00 0.01 0.01 85 1016.5
20260508034138 60 292 1.0 1.0 0.00 0.01 0.01 85 1016.6
20260508033636 60 291 1.0 1.0 0.00 0.01 0.01 84 1016.7
20260508033134 60 295 0.0 0.0 0.00 0.01 0.01 84 1016.5
20260508032630 60 284 1.0 1.0 0.00 0.01 0.01 84 1016.7
20260508032128 60 301 1.0 1.0 0.00 0.01 0.01 83 1016.8
20260508031625 60 304 0.0 0.0 0.00 0.01 0.01 83 1016.9
20260508031121 60 302 1.0 2.0 0.00 0.01 0.01 83 1017.1
20260508030617 60 301 2.0 2.0 0.00 0.01 0.01 84 1017.0
20260508030115 60 318 1.0 1.0 0.00 0.01 0.01 83 1016.7
20260508025611 61 339 1.0 1.0 0.00 0.01 0.01 81 1016.1
20260508025108 61 36 3.0 5.0 0.00 0.01 0.01 81 1015.7
20260508024604 61 39 3.0 5.0 0.00 0.01 0.01 81 1015.4
20260508024102 61 331 0.0 0.0 0.00 0.01 0.01 80 1015.4
20260508023558 61 51 3.0 3.0 0.00 0.01 0.01 80 1015.2
20260508023055 61 32 2.0 2.0 0.00 0.01 0.01 80 1015.2
20260508022551 62 59 6.0 8.0 0.00 0.01 0.01 79 1015.1
20260508022048 61 66 6.0 7.0 0.00 0.01 0.01 79 1014.7
20260508021544 61 53 5.0 7.0 0.00 0.01 0.01 79 1014.5
20260508021040 61 65 5.0 9.0 0.00 0.01 0.01 79 1014.4
20260508020538 61 122 5.0 9.0 0.00 0.01 0.01 79 1014.2
20260508020035 62 72 4.0 6.0 0.00 0.01 0.01 78 1014.6
20260508015532 62 355 2.0 3.0 0.00 0.01 0.01 78 1014.7
20260508015030 62 65 5.0 7.0 0.00 0.01 0.01 77 1014.8
20260508014526 62 18 3.0 5.0 0.00 0.01 0.01 77 1014.7
20260508014022 62 86 3.0 3.0 0.00 0.01 0.01 76 1014.6
20260508013518 62 58 5.0 6.0 0.00 0.01 0.01 76 1014.9
20260508013016 62 54 6.0 9.0 0.00 0.01 0.01 76 1014.8
20260508012513 62 26 4.0 5.0 0.00 0.01 0.01 77 1014.8
20260508012010 62 64 3.0 5.0 0.00 0.01 0.01 76 1014.3
20260508011508 62 89 5.0 6.0 0.00 0.01 0.01 76 1014.1
20260508011005 62 55 4.0 7.0 0.00 0.01 0.01 75 1014.7
20260508010502 63 52 7.0 10.0 0.00 0.01 0.01 74 1014.6
20260508005959 63 78 7.0 9.0 0.00 0.01 0.01 74 1014.6
20260508005450 63 83 5.0 6.0 0.00 0.01 0.01 73 1015.1
20260508004947 63 26 3.0 5.0 0.00 0.01 0.01 73 1015.1
20260508004443 64 52 6.0 9.0 0.00 0.01 0.01 72 1015.6
20260508003940 64 45 5.0 7.0 0.00 0.01 0.01 72 1015.6
20260508003436 64 12 2.0 3.0 0.00 0.01 0.01 71 1015.2
20260508002933 64 50 5.0 6.0 0.00 0.01 0.01 70 1015.1
20260508002430 64 30 5.0 8.0 0.00 0.01 0.01 70 1014.9
20260508001926 64 83 8.0 11.0 0.00 0.01 0.01 69 1015.2
20260508001422 64 90 5.0 8.0 0.00 0.01 0.01 69 1015.3
20260508000919 64 57 6.0 9.0 0.00 0.01 0.01 68 1015.6
20260508000415 65 53 5.0 7.0 0.00 0.01 0.01 69 1015.9
20260507235912 64 32 3.0 3.0 0.00 0.01 0.01 69 1015.8
20260507235409 64 62 4.0 6.0 0.00 0.01 0.01 67 1016.2
20260507234906 65 42 3.0 5.0 0.00 0.01 0.01 66 1016.6
20260507234403 65 38 1.0 2.0 0.00 0.01 0.01 67 1016.8
20260507233859 65 342 2.0 3.0 0.00 0.01 0.01 68 1016.2
20260507233356 65 42 4.0 6.0 0.00 0.01 0.01 68 1016.2
20260507232855 66 64 4.0 6.0 0.00 0.01 0.01 67 1016.4
20260507232351 66 337 0.0 0.0 0.00 0.01 0.01 70 1016.3
20260507231849 65 345 1.0 1.0 0.00 0.01 0.01 68 1016.1
20260507231345 65 1 1.0 2.0 0.00 0.01 0.01 69 1016.2
20260507230841 65 75 5.0 7.0 0.00 0.01 0.01 68 1015.3
20260507230338 65 65 7.0 8.0 0.00 0.01 0.01 67 1015.9
20260507225838 66 354 7.0 9.0 0.00 0.01 0.01 67 1016.2
20260507225334 65 48 4.0 6.0 0.00 0.01 0.01 69 1015.8
20260507224831 65 57 4.0 7.0 0.00 0.01 0.01 69 1016.2
20260507224328 65 44 8.0 10.0 0.00 0.01 0.01 68 1016.1
20260507223824 65 57 3.0 5.0 0.00 0.01 0.01 69 1016.4
20260507223320 65 40 5.0 6.0 0.00 0.01 0.01 69 1016.4
20260507222817 66 41 5.0 7.0 0.00 0.01 0.01 68 1016.7
20260507222314 66 2 4.0 6.0 0.00 0.01 0.01 69 1016.8
20260507221811 65 32 3.0 3.0 0.00 0.01 0.01 70 1016.5
20260507221307 65 23 5.0 6.0 0.00 0.01 0.01 70 1016.3
20260507220803 65 30 6.0 8.0 0.00 0.01 0.01 70 1016.7
20260507220302 66 351 3.0 5.0 0.00 0.01 0.01 69 1016.9
20260507215757 66 309 4.0 6.0 0.00 0.01 0.01 70 1017.3
20260507215255 65 14 2.0 2.0 0.00 0.01 0.01 69 1016.7
20260507214752 65 32 3.0 5.0 0.00 0.01 0.01 69 1017.1
20260507214249 66 41 4.0 7.0 0.00 0.01 0.01 67 1016.8
20260507213744 66 10 6.0 8.0 0.00 0.01 0.01 66 1017.3
20260507213242 67 350 1.0 1.0 0.00 0.01 0.01 66 1017.3
20260507212738 66 46 4.0 6.0 0.00 0.01 0.01 68 1017.3
20260507212235 66 328 4.0 6.0 0.00 0.01 0.01 67 1017.1
20260507211731 66 338 6.0 11.0 0.00 0.01 0.01 68 1017.5
20260507211228 66 330 4.0 5.0 0.00 0.01 0.01 68 1016.9
20260507210725 66 30 3.0 5.0 0.00 0.01 0.01 69 1016.9
20260507210221 64 66 7.0 8.0 0.00 0.01 0.01 69 1016.6
20260507205718 65 53 3.0 5.0 0.00 0.01 0.01 70 1017.0
20260507205214 64 10 3.0 3.0 0.00 0.01 0.01 71 1017.0
20260507204711 64 49 7.0 8.0 0.00 0.01 0.01 71 1017.0
20260507204209 64 32 3.0 7.0 0.00 0.01 0.01 71 1017.1
20260507203707 64 47 5.0 6.0 0.00 0.01 0.01 70 1017.1
20260507203204 64 30 4.0 6.0 0.00 0.01 0.01 71 1017.3
20260507202659 64 32 4.0 7.0 0.00 0.01 0.01 70 1017.3
20260507202155 64 71 6.0 8.0 0.00 0.01 0.01 70 1017.3
20260507201650 64 314 7.0 9.0 0.00 0.01 0.01 69 1017.7
20260507201148 65 47 7.0 9.0 0.00 0.01 0.01 69 1017.7
20260507200644 64 334 2.0 3.0 0.00 0.01 0.01 71 1017.8
20260507200140 64 49 2.0 3.0 0.00 0.01 0.01 71 1018.0
20260507195637 63 35 3.0 5.0 0.00 0.01 0.01 71 1017.7
20260507195134 63 35 3.0 5.0 0.00 0.01 0.01 72 1017.7
20260507194631 64 51 4.0 6.0 0.00 0.01 0.01 72 1017.7
20260507194126 63 33 5.0 6.0 0.00 0.01 0.01 71 1018.2
20260507193624 64 58 6.0 8.0 0.00 0.01 0.01 69 1018.0
20260507193121 64 7 3.0 5.0 0.00 0.01 0.01 71 1018.2
20260507192617 64 12 2.0 2.0 0.00 0.01 0.01 71 1018.4